FW7048 Weather Reports


Display with metric or nautical units.
time (UTC)temp
F
wind
direction
speed
MPH
gust
MPH
rain 1hr
in
rain 24hr
in
rain mn
in
humidity
%
barometer
mb
20260502151556 57 5 3.0 5.0 0.00 0.00 0.00 34 1022.7
20260502123115 45 0 0.0 3.0 0.00 0.00 0.00 43 1022.2
20260502121559 45 0 0.0 2.0 0.00 0.00 0.00 42 1022.0
20260502120111 45 0 0.0 3.0 0.00 0.00 0.00 42 1022.0
20260502114552 45 0 0.0 2.0 0.00 0.00 0.00 42 1022.2
20260502113058 46 5 0.0 4.0 0.00 0.00 0.00 41 1022.1
20260502111552 46 5 4.0 11.0 0.00 0.00 0.00 39 1022.0
20260502110053 48 5 1.0 3.0 0.00 0.00 0.00 38 1022.1
20260502104552 48 5 0.0 4.0 0.00 0.00 0.00 36 1022.0
20260502103051 47 0 0.0 2.0 0.00 0.00 0.00 38 1022.1
20260502101556 47 0 0.0 2.0 0.00 0.00 0.00 38 1022.0
20260502070111 48 5 0.0 4.0 0.00 0.00 0.00 41 1022.0
20260502064559 49 5 0.0 2.0 0.00 0.00 0.00 42 1022.0
20260502063105 50 0 0.0 2.0 0.00 0.00 0.00 45 1022.0
20260502061603 50 5 2.0 4.0 0.00 0.00 0.00 45 1021.9
20260502060057 48 5 0.0 8.0 0.00 0.00 0.00 41 1022.1
20260502054553 48 5 0.0 9.0 0.00 0.00 0.00 44 1022.0
20260502053057 48 5 2.0 5.0 0.00 0.00 0.00 45 1022.0
20260502051602 49 5 3.0 8.0 0.00 0.00 0.00 46 1021.9
20260502050054 49 0 0.0 2.0 0.00 0.00 0.00 49 1022.0
20260502044604 49 0 0.0 1.0 0.00 0.00 0.00 48 1021.9
20260502043057 49 0 0.0 3.0 0.00 0.00 0.00 49 1022.0
20260502041551 49 0 0.0 3.0 0.00 0.00 0.00 50 1021.9
20260502034550 51 5 1.0 4.0 0.00 0.00 0.00 47 1021.7
20260502033052 53 0 2.0 6.0 0.00 0.00 0.00 44 1021.5
20260502031553 54 5 1.0 3.0 0.00 0.00 0.00 43 1021.4
20260502030054 55 0 0.0 2.0 0.00 0.00 0.00 45 1020.9
20260502024555 55 0 0.0 1.0 0.00 0.00 0.00 42 1020.9
20260502023055 56 5 0.0 1.0 0.00 0.00 0.00 39 1020.8
20260502021556 58 0 0.0 8.0 0.00 0.00 0.00 36 1020.6
20260502020057 60 5 3.0 8.0 0.00 0.00 0.00 35 1020.6
20260502014554 60 5 3.0 8.0 0.00 0.00 0.00 35 1020.3
20260502013057 61 5 7.0 12.0 0.00 0.00 0.00 34 1020.3
20260502011553 61 5 8.0 14.0 0.00 0.00 0.00 33 1020.3
20260502010055 61 5 8.0 15.0 0.00 0.00 0.00 33 1020.2
20260502004554 61 5 8.0 17.0 0.00 0.00 0.00 33 1020.3
20260502003055 61 5 11.0 17.0 0.00 0.00 0.00 32 1020.1
20260502001557 61 5 10.0 19.0 0.00 0.00 0.00 33 1020.2
20260502000059 62 5 10.0 18.0 0.00 0.00 0.00 34 1020.2
20260501234600 61 9 12.0 19.0 0.00 0.00 0.00 33 1020.3
20260501233058 61 5 8.0 22.0 0.00 0.00 0.00 33 1020.5
20260501231602 62 5 10.0 17.0 0.00 0.00 0.00 31 1020.5
20260501224556 62 5 8.0 20.0 0.00 0.00 0.00 31 1020.6
20260501223104 62 5 10.0 20.0 0.00 0.00 0.00 29 1020.8
20260501221605 62 9 7.0 16.0 0.00 0.00 0.00 31 1020.6
20260501220108 61 5 12.0 20.0 0.00 0.00 0.00 30 1021.0
20260501214604 62 5 7.0 17.0 0.00 0.00 0.00 32 1021.0
20260501213107 62 5 10.0 23.0 0.00 0.00 0.00 30 1021.2
20260501210100 61 5 9.0 19.0 0.00 0.00 0.00 25 1021.2
20260501204559 61 5 7.0 14.0 0.00 0.00 0.00 27 1021.3
20260501203058 61 5 7.0 14.0 0.00 0.00 0.00 26 1021.5
20260501201559 60 5 10.0 21.0 0.00 0.00 0.00 27 1021.5
20260501200056 60 5 5.0 15.0 0.00 0.00 0.00 27 1021.5
20260501194615 60 5 6.0 15.0 0.00 0.00 0.00 27 1021.5
20260501193054 60 5 7.0 16.0 0.00 0.00 0.00 28 1021.5
20260501191557 60 5 7.0 15.0 0.00 0.00 0.00 27 1021.6
20260501190056 60 5 6.0 14.0 0.00 0.00 0.00 26 1021.9
20260501184554 59 5 5.0 14.0 0.00 0.00 0.00 24 1021.9
20260501183055 59 5 7.0 13.0 0.00 0.00 0.00 24 1022.0
20260501181620 59 5 3.0 11.0 0.00 0.00 0.00 25 1022.2
20260501180059 58 5 5.0 12.0 0.00 0.00 0.00 25 1022.2
20260501174557 57 5 2.0 10.0 0.00 0.00 0.00 28 1022.2
20260501173109 57 5 2.0 8.0 0.00 0.00 0.00 25 1022.3
20260501171555 56 5 6.0 12.0 0.00 0.00 0.00 26 1022.5
20260501170055 56 5 4.0 11.0 0.00 0.00 0.00 30 1022.4
20260501164556 56 5 2.0 8.0 0.00 0.00 0.00 25 1022.4
20260501163054 56 5 2.0 6.0 0.00 0.00 0.00 29 1022.3
20260501161555 55 5 5.0 11.0 0.00 0.00 0.00 29 1022.2
20260501160053 55 5 6.0 10.0 0.00 0.00 0.00 32 1022.2
20260501154604 53 5 5.0 11.0 0.00 0.00 0.00 37 1022.1
20260501153111 54 5 1.0 8.0 0.00 0.00 0.00 37 1022.1